Regional Weather Roundup
Issued by NWS Goodland, KS

Home | Current Version | Previous Version | Text Only | Print | Product List | Glossary On
Versions: 1 2 3 4 5 6 7 8 9 10 11 12 13 14 15 16 17 18 19 20 21 22 23 24 25 26 27 28 29 30 31 32 33 34 35 36 37 38 39 40 41 42 43 44 45 46 47 48 49 50
000
ASUS43 KGLD 150308
RWRGLD

GOODLAND FORECAST AREA HOURLY WEATHER ROUNDUP
NATIONAL WEATHER SERVICE GOODLAND KS
900 PM MDT MON JUN 14 2021

...OFFICIAL OBSERVATIONS...

CITY           SKY/WX    TMP DP  RH WIND       PRES   REMARKS
GOODLAND KS    PTCLDY    79  58  48 SE9       30.11R
HILL CITY KS   CLEAR     82  66  58 E6        30.06R
IMPERIAL NEB   CLEAR     79  59  50 SE10      30.08R
MCCOOK NEB     CLEAR     83  62  49 SE10      30.06R
AKRON CO       CLEAR     79  58  48 SE12      30.14R
BURLINGTON CO  PTCLDY    79  62  56 SE13      30.14R
LIMON CO       MOCLDY    79  58  48 SE10      30.19R
$$

...UNOFFICIAL OBSERVATIONS...

CITY           SKY/WX    TMP DP  RH WIND       PRES   REMARKS
COLBY KS       CLEAR     78  58  51 SE8       30.11R
NORTON KS      FAIR      79  64  61 SE6       30.10R
SHARON SPRINGS   N/A     78  60  54 S12G18      N/A
YUMA CO          N/A     81  63  54 E12       30.12R
$$



USA.gov is the U.S. government's official web portal to all federal, state and local government web resources and services.